| time (UTC) | temp C | wind direction | speed KPH | gust KPH | rain 1hr cm | rain 24hr cm | rain mn cm | humidity % | barometer mb |
| 20260503225316 | 16 | 80 | 6.4 | 9.7 | 0.00 | 0.00 | 0.00 | 37 | 1019.2 |
| 20260503224816 | 16 | 184 | 6.4 | 11.3 | 0.00 | 0.00 | 0.00 | 37 | 1019.1 |
| 20260503224316 | 16 | 161 | 6.4 | 11.3 | 0.00 | 0.00 | 0.00 | 37 | 1019.2 |
| 20260503223816 | 16 | 132 | 4.8 | 11.3 | 0.00 | 0.00 | 0.00 | 38 | 1019.2 |
| 20260503223316 | 16 | 148 | 4.8 | 9.7 | 0.00 | 0.00 | 0.00 | 36 | 1019.2 |
| 20260503222816 | 16 | 108 | 8.0 | 14.5 | 0.00 | 0.00 | 0.00 | 37 | 1019.3 |
| 20260503222316 | 16 | 123 | 11.3 | 14.5 | 0.00 | 0.00 | 0.00 | 36 | 1019.2 |
| 20260503221816 | 16 | 92 | 14.5 | 20.9 | 0.00 | 0.00 | 0.00 | 36 | 1019.1 |
| 20260503221316 | 16 | 94 | 16.1 | 22.5 | 0.00 | 0.00 | 0.00 | 36 | 1019.0 |
| 20260503220816 | 16 | 104 | 17.7 | 24.1 | 0.00 | 0.00 | 0.00 | 36 | 1019.1 |
| 20260503220316 | 16 | 55 | 16.1 | 25.7 | 0.00 | 0.00 | 0.00 | 36 | 1019.0 |
| 20260503215816 | 16 | 96 | 16.1 | 20.9 | 0.00 | 0.00 | 0.00 | 37 | 1018.9 |
| 20260503215316 | 16 | 90 | 17.7 | 25.7 | 0.00 | 0.00 | 0.00 | 36 | 1018.8 |
| 20260503214816 | 16 | 115 | 17.7 | 22.5 | 0.00 | 0.00 | 0.00 | 37 | 1018.8 |
| 20260503214316 | 16 | 96 | 16.1 | 24.1 | 0.00 | 0.00 | 0.00 | 36 | 1018.8 |
| 20260503213816 | 16 | 95 | 14.5 | 19.3 | 0.00 | 0.00 | 0.00 | 37 | 1018.9 |
| 20260503213316 | 16 | 100 | 11.3 | 14.5 | 0.00 | 0.00 | 0.00 | 39 | 1018.8 |
| 20260503212816 | 16 | 92 | 11.3 | 14.5 | 0.00 | 0.00 | 0.00 | 40 | 1018.8 |
| 20260503212316 | 15 | 93 | 9.7 | 14.5 | 0.00 | 0.00 | 0.00 | 43 | 1018.8 |
| 20260503211816 | 14 | 90 | 9.7 | 16.1 | 0.00 | 0.00 | 0.00 | 47 | 1018.8 |
| 20260503211316 | 13 | 107 | 8.0 | 19.3 | 0.00 | 0.00 | 0.00 | 52 | 1018.8 |
| 20260503210816 | 13 | 81 | 6.4 | 11.3 | 0.00 | 0.00 | 0.00 | 61 | 1018.6 |
| 20260503210316 | 13 | 74 | 4.8 | 8.0 | 0.00 | 0.00 | 0.00 | 66 | 1018.6 |
| 20260503205816 | 13 | 34 | 3.2 | 6.4 | 0.00 | 0.00 | 0.00 | 67 | 1018.6 |
| 20260503205316 | 13 | 104 | 3.2 | 6.4 | 0.00 | 0.00 | 0.00 | 67 | 1018.5 |
| 20260503204816 | 13 | 107 | 3.2 | 4.8 | 0.00 | 0.00 | 0.00 | 68 | 1018.6 |
| 20260503204316 | 13 | 107 | 3.2 | 4.8 | 0.00 | 0.00 | 0.00 | 68 | 1018.6 |
| 20260503203816 | 13 | 108 | 3.2 | 4.8 | 0.00 | 0.00 | 0.00 | 68 | 1018.6 |
| 20260503203316 | 13 | 107 | 1.6 | 4.8 | 0.00 | 0.00 | 0.00 | 68 | 1018.6 |
| 20260503202816 | 13 | 135 | 3.2 | 6.4 | 0.00 | 0.00 | 0.00 | 67 | 1018.5 |
| 20260503202316 | 13 | 115 | 4.8 | 4.8 | 0.00 | 0.00 | 0.00 | 67 | 1018.5 |
| 20260503201816 | 13 | 78 | 4.8 | 11.3 | 0.00 | 0.00 | 0.00 | 67 | 1018.5 |
| 20260503201316 | 13 | 113 | 6.4 | 9.7 | 0.00 | 0.00 | 0.00 | 66 | 1018.4 |
| 20260503200816 | 13 | 112 | 6.4 | 11.3 | 0.00 | 0.00 | 0.00 | 66 | 1018.4 |
| 20260503200316 | 13 | 117 | 4.8 | 11.3 | 0.00 | 0.00 | 0.00 | 66 | 1018.4 |
| 20260503195816 | 13 | 135 | 4.8 | 6.4 | 0.00 | 0.00 | 0.00 | 65 | 1018.5 |
| 20260503195316 | 14 | 148 | 6.4 | 8.0 | 0.00 | 0.00 | 0.00 | 65 | 1018.4 |
| 20260503194816 | 13 | 136 | 4.8 | 8.0 | 0.00 | 0.00 | 0.00 | 65 | 1018.3 |
| 20260503194316 | 13 | 130 | 3.2 | 6.4 | 0.00 | 0.00 | 0.00 | 65 | 1018.2 |
| 20260503193816 | 14 | 112 | 4.8 | 4.8 | 0.00 | 0.00 | 0.00 | 65 | 1018.2 |
| 20260503193316 | 14 | 112 | 4.8 | 6.4 | 0.00 | 0.00 | 0.00 | 64 | 1018.1 |
| 20260503192816 | 14 | 115 | 6.4 | 8.0 | 0.00 | 0.00 | 0.00 | 63 | 1018.1 |
| 20260503192316 | 15 | 123 | 4.8 | 6.4 | 0.00 | 0.00 | 0.00 | 62 | 1018.1 |
| 20260503191816 | 15 | 126 | 4.8 | 6.4 | 0.00 | 0.00 | 0.00 | 60 | 1018.0 |
| 20260503191316 | 15 | 142 | 4.8 | 8.0 | 0.00 | 0.00 | 0.00 | 59 | 1018.0 |
| 20260503190816 | 15 | 172 | 4.8 | 6.4 | 0.00 | 0.00 | 0.00 | 59 | 1018.0 |
| 20260503190316 | 15 | 163 | 6.4 | 8.0 | 0.00 | 0.00 | 0.00 | 59 | 1017.8 |
| 20260503185816 | 15 | 165 | 6.4 | 8.0 | 0.00 | 0.00 | 0.00 | 59 | 1017.9 |
| 20260503185316 | 15 | 167 | 4.8 | 6.4 | 0.00 | 0.00 | 0.00 | 59 | 1017.9 |
| 20260503184816 | 15 | 177 | 4.8 | 6.4 | 0.00 | 0.00 | 0.00 | 58 | 1017.8 |
| 20260503184316 | 15 | 175 | 4.8 | 6.4 | 0.00 | 0.00 | 0.00 | 59 | 1017.8 |
| 20260503183816 | 16 | 136 | 4.8 | 6.4 | 0.00 | 0.00 | 0.00 | 60 | 1017.7 |
| 20260503183316 | 16 | 135 | 4.8 | 6.4 | 0.00 | 0.00 | 0.00 | 59 | 1017.7 |
| 20260503182816 | 16 | 171 | 4.8 | 8.0 | 0.00 | 0.00 | 0.00 | 58 | 1017.6 |
| 20260503182316 | 16 | 260 | 4.8 | 6.4 | 0.00 | 0.00 | 0.00 | 58 | 1017.5 |
| 20260503181816 | 16 | 260 | 4.8 | 6.4 | 0.00 | 0.00 | 0.00 | 57 | 1017.5 |
| 20260503181316 | 16 | 284 | 3.2 | 6.4 | 0.00 | 0.00 | 0.00 | 57 | 1017.4 |
| 20260503180816 | 16 | 252 | 3.2 | 4.8 | 0.00 | 0.00 | 0.00 | 58 | 1017.4 |
| 20260503180316 | 16 | 301 | 3.2 | 6.4 | 0.00 | 0.00 | 0.00 | 57 | 1017.4 |
| 20260503175816 | 16 | 274 | 4.8 | 9.7 | 0.00 | 0.00 | 0.00 | 57 | 1017.4 |
| 20260503175316 | 16 | 257 | 8.0 | 11.3 | 0.00 | 0.00 | 0.00 | 57 | 1017.3 |
| 20260503174817 | 16 | 261 | 9.7 | 14.5 | 0.00 | 0.00 | 0.00 | 57 | 1017.2 |
| 20260503174316 | 16 | 294 | 11.3 | 14.5 | 0.00 | 0.00 | 0.00 | 56 | 1017.1 |
| 20260503173816 | 16 | 287 | 11.3 | 16.1 | 0.00 | 0.00 | 0.00 | 56 | 1017.0 |
| 20260503173316 | 17 | 286 | 11.3 | 16.1 | 0.00 | 0.00 | 0.00 | 55 | 1017.0 |
| 20260503172816 | 17 | 288 | 11.3 | 17.7 | 0.00 | 0.00 | 0.00 | 55 | 1017.0 |
| 20260503172316 | 17 | 276 | 12.9 | 22.5 | 0.00 | 0.00 | 0.00 | 54 | 1016.8 |
| 20260503171816 | 17 | 285 | 12.9 | 17.7 | 0.00 | 0.00 | 0.00 | 54 | 1016.9 |
| 20260503171316 | 17 | 304 | 14.5 | 19.3 | 0.00 | 0.00 | 0.00 | 53 | 1016.9 |
| 20260503170816 | 17 | 296 | 14.5 | 24.1 | 0.00 | 0.00 | 0.00 | 52 | 1016.8 |
| 20260503170316 | 17 | 266 | 16.1 | 20.9 | 0.00 | 0.00 | 0.00 | 51 | 1016.7 |
| 20260503150816 | 20 | 297 | 17.7 | 29.0 | 0.00 | 0.00 | 0.00 | 44 | 1016.2 |
| 20260503150316 | 20 | 267 | 16.1 | 22.5 | 0.00 | 0.00 | 0.00 | 43 | 1016.2 |
| 20260503131317 | 20 | 107 | 6.4 | 16.1 | 0.00 | 0.00 | 0.00 | 36 | 1016.6 |
| 20260503130817 | 20 | 114 | 8.0 | 11.3 | 0.00 | 0.00 | 0.00 | 36 | 1016.6 |
| 20260503130317 | 20 | 101 | 12.9 | 20.9 | 0.00 | 0.00 | 0.00 | 36 | 1016.6 |
| 20260503110817 | 19 | 39 | 14.5 | 22.5 | 0.00 | 0.00 | 0.00 | 40 | 1017.6 |
| 20260503110317 | 19 | 73 | 12.9 | 20.9 | 0.00 | 0.00 | 0.00 | 41 | 1017.8 |
| 20260503090317 | 17 | 81 | 25.7 | 43.5 | 0.00 | 0.00 | 0.00 | 41 | 1018.6 |
| 20260503081317 | 16 | 84 | 25.7 | 41.8 | 0.00 | 0.00 | 0.00 | 47 | 1018.3 |
| 20260503080817 | 16 | 82 | 22.5 | 43.5 | 0.00 | 0.00 | 0.00 | 46 | 1018.3 |
| 20260503080317 | 16 | 80 | 20.9 | 30.6 | 0.00 | 0.00 | 0.00 | 47 | 1018.3 |
| 20260503072817 | 16 | 59 | 17.7 | 32.2 | 0.00 | 0.00 | 0.00 | 49 | 1018.2 |
| 20260503072317 | 16 | 82 | 19.3 | 29.0 | 0.00 | 0.00 | 0.00 | 50 | 1018.4 |
| 20260503071817 | 16 | 58 | 17.7 | 25.7 | 0.00 | 0.00 | 0.00 | 52 | 1018.3 |
| 20260503071317 | 16 | 61 | 16.1 | 27.4 | 0.00 | 0.00 | 0.00 | 53 | 1018.3 |
| 20260503070817 | 16 | 81 | 11.3 | 25.7 | 0.00 | 0.00 | 0.00 | 53 | 1018.3 |
| 20260503070317 | 16 | 41 | 9.7 | 20.9 | 0.00 | 0.00 | 0.00 | 53 | 1018.3 |
| 20260503060317 | 13 | 153 | 6.4 | 12.9 | 0.00 | 0.00 | 0.00 | 66 | 1018.1 |
| 20260503054817 | 12 | 150 | 4.8 | 9.7 | 0.00 | 0.00 | 0.00 | 72 | 1018.0 |
| 20260503054317 | 11 | 295 | 1.6 | 4.8 | 0.00 | 0.00 | 0.00 | 74 | 1018.0 |
| 20260503053817 | 11 | 346 | 0.0 | 4.8 | 0.00 | 0.00 | 0.00 | 75 | 1017.9 |
| 20260503053317 | 11 | 347 | 1.6 | 3.2 | 0.00 | 0.00 | 0.00 | 75 | 1017.9 |
| 20260503052818 | 10 | 322 | 1.6 | 4.8 | 0.00 | 0.00 | 0.00 | 76 | 1017.8 |
| 20260503052318 | 10 | 322 | 1.6 | 3.2 | 0.00 | 0.00 | 0.00 | 76 | 1017.8 |
| 20260503051818 | 10 | 322 | 3.2 | 4.8 | 0.00 | 0.00 | 0.00 | 76 | 1017.9 |
| 20260503051318 | 10 | 322 | 3.2 | 6.4 | 0.00 | 0.00 | 0.00 | 75 | 1017.8 |
| 20260503050818 | 10 | 321 | 1.6 | 6.4 | 0.00 | 0.00 | 0.00 | 75 | 1017.7 |
| 20260503050318 | 10 | 311 | 1.6 | 3.2 | 0.00 | 0.00 | 0.00 | 75 | 1017.7 |
| 20260503045818 | 10 | 311 | 3.2 | 4.8 | 0.00 | 0.00 | 0.00 | 74 | 1017.7 |
| 20260503045318 | 10 | 311 | 1.6 | 4.8 | 0.00 | 0.00 | 0.00 | 74 | 1017.6 |
| 20260503044818 | 10 | 310 | 0.0 | 3.2 | 0.00 | 0.00 | 0.00 | 74 | 1017.7 |
| 20260503044318 | 10 | 310 | 1.6 | 0.0 | 0.00 | 0.00 | 0.00 | 74 | 1017.6 |
| 20260503043818 | 10 | 310 | 3.2 | 3.2 | 0.00 | 0.00 | 0.00 | 73 | 1017.5 |
| 20260503043318 | 10 | 310 | 3.2 | 4.8 | 0.00 | 0.00 | 0.00 | 73 | 1017.5 |
| 20260503042818 | 11 | 310 | 3.2 | 6.4 | 0.00 | 0.00 | 0.00 | 73 | 1017.6 |
| 20260503042318 | 11 | 306 | 3.2 | 4.8 | 0.00 | 0.00 | 0.00 | 73 | 1017.6 |
| 20260503041818 | 10 | 306 | 4.8 | 6.4 | 0.00 | 0.00 | 0.00 | 75 | 1017.5 |
| 20260503041318 | 10 | 297 | 4.8 | 6.4 | 0.00 | 0.00 | 0.00 | 76 | 1017.5 |
| 20260503040818 | 10 | 275 | 4.8 | 6.4 | 0.00 | 0.00 | 0.00 | 77 | 1017.4 |
| 20260503040318 | 10 | 275 | 4.8 | 6.4 | 0.00 | 0.00 | 0.00 | 77 | 1017.3 |
| 20260503035818 | 10 | 281 | 4.8 | 6.4 | 0.00 | 0.00 | 0.00 | 76 | 1017.3 |
| 20260503035318 | 10 | 311 | 4.8 | 6.4 | 0.00 | 0.00 | 0.00 | 75 | 1017.3 |
| 20260503034818 | 10 | 312 | 4.8 | 6.4 | 0.00 | 0.00 | 0.00 | 75 | 1017.4 |
| 20260503034318 | 10 | 308 | 4.8 | 6.4 | 0.00 | 0.00 | 0.00 | 76 | 1017.3 |
| 20260503033818 | 10 | 292 | 4.8 | 6.4 | 0.00 | 0.00 | 0.00 | 77 | 1017.2 |
| 20260503033318 | 10 | 292 | 4.8 | 6.4 | 0.00 | 0.00 | 0.00 | 76 | 1017.3 |
| 20260503032818 | 10 | 297 | 6.4 | 4.8 | 0.00 | 0.00 | 0.00 | 76 | 1017.2 |
| 20260503032318 | 10 | 294 | 6.4 | 8.0 | 0.00 | 0.00 | 0.00 | 76 | 1017.2 |
| 20260503031818 | 10 | 293 | 4.8 | 9.7 | 0.00 | 0.00 | 0.00 | 78 | 1017.1 |
| 20260503031318 | 10 | 298 | 3.2 | 6.4 | 0.00 | 0.00 | 0.00 | 78 | 1017.2 |
| 20260503030818 | 10 | 306 | 3.2 | 6.4 | 0.00 | 0.00 | 0.00 | 78 | 1017.2 |
| 20260503030318 | 10 | 308 | 3.2 | 3.2 | 0.00 | 0.00 | 0.00 | 78 | 1017.3 |
| 20260503025818 | 10 | 308 | 3.2 | 4.8 | 0.00 | 0.00 | 0.00 | 78 | 1017.3 |
| 20260503025318 | 10 | 328 | 3.2 | 4.8 | 0.00 | 0.00 | 0.00 | 77 | 1017.3 |
| 20260503024818 | 10 | 328 | 3.2 | 4.8 | 0.00 | 0.00 | 0.00 | 76 | 1017.3 |
| 20260503024318 | 10 | 302 | 3.2 | 4.8 | 0.00 | 0.00 | 0.00 | 76 | 1017.3 |
| 20260503023818 | 10 | 293 | 3.2 | 4.8 | 0.00 | 0.00 | 0.00 | 76 | 1017.4 |
| 20260503023318 | 11 | 221 | 0.0 | 3.2 | 0.00 | 0.00 | 0.00 | 76 | 1017.3 |
| 20260503022818 | 11 | 221 | 0.0 | 3.2 | 0.00 | 0.00 | 0.00 | 77 | 1017.3 |
| 20260503022318 | 11 | 221 | 0.0 | 0.0 | 0.00 | 0.00 | 0.00 | 76 | 1017.3 |
| 20260503021818 | 11 | 220 | 0.0 | 0.0 | 0.00 | 0.00 | 0.00 | 75 | 1017.3 |
| 20260503021318 | 11 | 220 | 1.6 | 1.6 | 0.00 | 0.00 | 0.00 | 74 | 1017.3 |
| 20260503020818 | 11 | 220 | 3.2 | 4.8 | 0.00 | 0.00 | 0.00 | 73 | 1017.4 |
| 20260503020318 | 11 | 286 | 4.8 | 4.8 | 0.00 | 0.00 | 0.00 | 73 | 1017.4 |
| 20260503015818 | 11 | 286 | 4.8 | 6.4 | 0.00 | 0.00 | 0.00 | 75 | 1017.4 |
| 20260503015318 | 11 | 275 | 4.8 | 6.4 | 0.00 | 0.00 | 0.00 | 78 | 1017.5 |
| 20260503014818 | 10 | 281 | 4.8 | 6.4 | 0.00 | 0.00 | 0.00 | 80 | 1017.5 |
| 20260503014318 | 10 | 274 | 6.4 | 6.4 | 0.00 | 0.00 | 0.00 | 80 | 1017.4 |
| 20260503013818 | 10 | 266 | 8.0 | 11.3 | 0.00 | 0.00 | 0.00 | 79 | 1017.5 |
| 20260503013318 | 11 | 268 | 8.0 | 12.9 | 0.00 | 0.00 | 0.00 | 78 | 1017.5 |
| 20260503012818 | 11 | 276 | 6.4 | 11.3 | 0.00 | 0.00 | 0.00 | 76 | 1017.5 |
| 20260503012318 | 10 | 292 | 4.8 | 6.4 | 0.00 | 0.00 | 0.00 | 77 | 1017.6 |
| 20260503011818 | 10 | 308 | 4.8 | 6.4 | 0.00 | 0.00 | 0.00 | 78 | 1017.6 |
| 20260503011318 | 10 | 297 | 4.8 | 6.4 | 0.00 | 0.00 | 0.00 | 78 | 1017.6 |
| 20260503010818 | 10 | 286 | 4.8 | 9.7 | 0.00 | 0.00 | 0.00 | 78 | 1017.6 |
| 20260503010318 | 10 | 290 | 4.8 | 8.0 | 0.00 | 0.00 | 0.00 | 78 | 1017.7 |
| 20260503005818 | 10 | 297 | 4.8 | 4.8 | 0.00 | 0.00 | 0.00 | 79 | 1017.7 |
| 20260503005318 | 10 | 297 | 4.8 | 6.4 | 0.00 | 0.00 | 0.00 | 79 | 1017.7 |
| 20260503004818 | 10 | 288 | 1.6 | 6.4 | 0.00 | 0.00 | 0.00 | 79 | 1017.7 |
| 20260503004318 | 10 | 284 | 0.0 | 0.0 | 0.00 | 0.00 | 0.00 | 79 | 1017.8 |
| 20260503003818 | 11 | 284 | 0.0 | 0.0 | 0.00 | 0.00 | 0.00 | 78 | 1017.7 |
| 20260503003318 | 11 | 323 | 1.6 | 1.6 | 0.00 | 0.00 | 0.00 | 77 | 1017.8 |
| 20260503002818 | 11 | 323 | 3.2 | 3.2 | 0.00 | 0.00 | 0.00 | 77 | 1017.8 |
| 20260503002318 | 11 | 323 | 3.2 | 6.4 | 0.00 | 0.00 | 0.00 | 78 | 1017.8 |
| 20260503001818 | 11 | 319 | 4.8 | 6.4 | 0.00 | 0.00 | 0.00 | 79 | 1017.7 |
| 20260503001318 | 11 | 319 | 4.8 | 8.0 | 0.00 | 0.00 | 0.00 | 79 | 1017.9 |
| 20260503000818 | 11 | 301 | 4.8 | 8.0 | 0.00 | 0.00 | 0.00 | 79 | 1017.9 |
| 20260503000319 | 11 | 307 | 3.2 | 6.4 | 0.00 | 0.00 | 0.00 | 78 | 1018.0 |
| 20260502235818 | 11 | 29 | 3.2 | 3.2 | 0.00 | 0.00 | 0.00 | 78 | 1018.1 |
| 20260502235318 | 11 | 29 | 3.2 | 3.2 | 0.00 | 0.00 | 0.00 | 77 | 1018.2 |
| 20260502234818 | 11 | 29 | 1.6 | 4.8 | 0.00 | 0.00 | 0.00 | 77 | 1018.2 |
| 20260502234318 | 11 | 63 | 1.6 | 4.8 | 0.00 | 0.00 | 0.00 | 77 | 1018.3 |
| 20260502233818 | 11 | 65 | 3.2 | 4.8 | 0.00 | 0.00 | 0.00 | 77 | 1018.3 |
| 20260502233318 | 11 | 96 | 1.6 | 3.2 | 0.00 | 0.00 | 0.00 | 78 | 1018.4 |
| 20260502232818 | 11 | 96 | 3.2 | 6.4 | 0.00 | 0.00 | 0.00 | 78 | 1018.4 |
| 20260502232318 | 11 | 165 | 1.6 | 6.4 | 0.00 | 0.00 | 0.00 | 78 | 1018.4 |
| 20260502231818 | 11 | 172 | 1.6 | 4.8 | 0.00 | 0.00 | 0.00 | 77 | 1018.4 |
| 20260502231318 | 11 | 175 | 1.6 | 3.2 | 0.00 | 0.00 | 0.00 | 77 | 1018.5 |
| 20260502230818 | 11 | 175 | 1.6 | 4.8 | 0.00 | 0.00 | 0.00 | 76 | 1018.6 |
| 20260502230318 | 12 | 175 | 0.0 | 4.8 | 0.00 | 0.00 | 0.00 | 76 | 1018.6 |
| 20260502225818 | 12 | 175 | 0.0 | 0.0 | 0.00 | 0.00 | 0.00 | 75 | 1018.5 |